EW2692 Weather Reports


time (UTC)temp
C
wind
direction
speed
KPH
gust
KPH
rain 1hr
cm
rain 24hr
cm
rain mn
cm
humidity
%
barometer
mb
20260906214545 29 38 3.2 16.1 0.00 0.03 0.03 60 938.2
20260906213036 29 333 3.2 9.7 0.00 0.03 0.03 60 938.4
20260906211532 29 306 1.6 8.0 0.00 0.03 0.03 61 938.8
20260906210113 29 343 1.6 8.0 0.00 0.03 0.03 60 938.8
20260906204528 28 28 1.6 9.7 0.00 0.03 0.03 62 939.1
20260906203026 28 302 4.8 12.9 0.00 0.03 0.03 63 939.4
20260906201522 28 40 3.2 9.7 0.00 0.03 0.03 64 939.5
20260906200021 27 13 1.6 9.7 0.00 0.03 0.03 65 939.4
20260906194519 26 290 4.8 16.1 0.00 0.03 0.03 68 939.5
20260906193015 26 276 4.8 14.5 0.00 0.03 0.03 70 939.6
20260906191512 26 295 1.6 12.9 0.00 0.03 0.03 72 939.9
20260906190011 26 313 3.2 14.5 0.00 0.03 0.03 73 940.1
20260906184506 25 289 6.4 12.9 0.00 0.03 0.03 74 940.1
20260906183005 25 284 3.2 12.9 0.00 0.03 0.03 76 940.1
20260906181629 24 288 3.2 12.9 0.00 0.03 0.03 79 940.3
20260906180054 23 293 3.2 11.3 0.00 0.03 0.03 81 940.2
20260906174553 23 281 3.2 11.3 0.00 0.03 0.03 84 940.3
20260906173046 22 287 3.2 12.9 0.00 0.03 0.03 86 940.2
20260906171542 22 298 3.2 16.1 0.00 0.03 0.03 90 940.3
20260906170039 21 295 4.8 11.3 0.00 0.03 0.03 91 940.4
20260906164535 20 15 0.0 8.0 0.00 0.03 0.03 94 940.6
20260906163033 20 21 1.6 9.7 0.00 0.03 0.03 95 940.4
20260906161532 20 35 1.6 9.7 0.03 0.03 0.03 96 940.1
20260906160030 19 26 0.0 6.4 0.03 0.03 0.03 97 940.0
20260906154529 19 34 0.0 6.4 0.03 0.03 0.03 97 940.1
20260906153032 18 62 0.0 8.0 0.03 0.03 0.03 96 940.3
20260906151528 19 94 0.0 6.4 0.00 0.00 0.00 95 941.4
20260906150031 19 113 1.6 11.3 0.00 0.00 0.00 96 941.2
20260906144526 19 15 3.2 16.1 0.00 0.00 0.00 96 940.3
20260906143023 19 73 1.6 8.0 0.00 0.00 0.00 97 940.4
20260906141522 18 22 0.0 9.7 0.00 0.00 0.00 97 940.3
20260906140023 18 343 0.0 8.0 0.00 0.00 0.00 97 940.8
20260906134521 18 315 0.0 3.2 0.00 0.00 0.00 97 941.2
20260906133022 18 311 0.0 3.2 0.00 0.00 0.00 97 941.5
20260906131520 18 311 0.0 3.2 0.00 0.00 0.00 98 941.8
20260906130023 18 311 0.0 3.2 0.00 0.00 0.00 98 941.8
20260906124517 17 311 0.0 3.2 0.00 0.00 0.00 97 941.6
20260906123026 17 311 0.0 1.6 0.00 0.00 0.00 97 941.5
20260906121516 17 311 0.0 4.8 0.00 0.00 0.00 97 941.5
20260906120015 17 318 0.0 3.2 0.00 0.00 0.00 97 941.6
20260906114533 17 318 0.0 3.2 0.00 0.00 0.00 96 941.5
20260906113013 17 323 0.0 1.6 0.00 0.00 0.00 96 941.4
20260906111521 17 323 0.0 3.2 0.00 0.00 0.00 96 941.5
20260906110011 17 328 0.0 3.2 0.00 0.00 0.00 96 941.2
20260906104513 17 31 0.0 1.6 0.00 0.00 0.00 96 940.7
20260906103008 17 30 0.0 3.2 0.00 0.00 0.00 96 940.5
20260906101507 18 29 0.0 3.2 0.00 0.00 0.00 96 940.6
20260906100006 18 29 0.0 1.6 0.00 0.00 0.00 95 940.6
20260906094504 18 25 0.0 4.8 0.00 0.00 0.00 95 940.6
20260906093002 18 22 0.0 4.8 0.00 0.00 0.00 95 940.6
20260906091502 18 15 0.0 3.2 0.00 0.00 0.00 95 940.6
20260906090104 18 11 0.0 1.6 0.00 0.00 0.00 95 940.8
20260906084558 18 13 0.0 1.6 0.00 0.00 0.00 94 940.9
20260906083056 18 13 0.0 3.2 0.00 0.00 0.00 94 940.8
20260906081559 18 15 0.0 3.2 0.00 0.00 0.00 93 940.8
20260906080055 19 15 0.0 3.2 0.00 0.00 0.00 93 941.1
20260906074553 19 13 0.0 3.2 0.00 0.00 0.00 93 941.0
20260906073048 19 15 0.0 3.2 0.00 0.00 0.00 93 941.2
20260906071546 20 9 0.0 4.8 0.00 0.00 0.00 93 941.3
20260906070045 20 23 0.0 4.8 0.00 0.00 0.00 93 941.3
20260906064544 19 355 0.0 1.6 0.00 0.00 0.00 92 941.6
20260906063042 20 355 0.0 1.6 0.00 0.00 0.00 92 941.8
20260906061540 20 355 0.0 1.6 0.00 0.00 0.00 91 941.7
20260906060053 20 355 0.0 1.6 0.00 0.00 0.00 90 941.7
20260906054538 20 355 0.0 0.0 0.00 0.00 0.00 88 941.7
20260906053038 20 355 0.0 4.8 0.00 0.00 0.00 88 941.6
20260906051536 21 350 0.0 3.2 0.00 0.00 0.00 87 941.7
20260906050037 21 350 0.0 4.8 0.00 0.00 0.00 86 941.7
20260906044535 21 5 0.0 4.8 0.00 0.00 0.00 85 941.8
20260906043039 21 16 0.0 3.2 0.00 0.00 0.00 84 941.8
20260906041536 22 17 1.6 8.0 0.00 0.00 0.00 82 941.7
20260906040037 22 42 0.0 6.4 0.00 0.00 0.00 81 941.7
20260906034535 22 13 1.6 12.9 0.00 0.00 0.00 80 941.7
20260906033031 23 19 3.2 12.9 0.00 0.00 0.00 78 941.7
20260906031556 23 355 3.2 12.9 0.00 0.00 0.00 77 941.6
20260906030030 23 27 1.6 12.9 0.00 0.00 0.00 77 941.6
20260906024538 23 32 3.2 11.3 0.00 0.00 0.00 76 941.6
20260906023031 23 340 3.2 16.1 0.00 0.00 0.00 75 941.7
20260906021527 23 57 1.6 9.7 0.00 0.00 0.00 76 941.4
20260906020024 23 22 1.6 6.4 0.00 0.00 0.00 75 941.2
20260906014526 24 34 1.6 12.9 0.00 0.00 0.00 74 940.9
20260906013021 25 14 1.6 6.4 0.00 0.00 0.00 71 940.7
20260906011519 25 17 1.6 8.0 0.00 0.00 0.00 69 940.5
20260906010018 26 9 3.2 9.7 0.00 0.00 0.00 68 940.4
20260906004518 26 26 1.6 8.0 0.00 0.00 0.00 66 940.4
20260906003016 26 37 1.6 8.0 0.00 0.00 0.00 66 940.3
20260906001515 27 355 3.2 9.7 0.00 0.00 0.00 64 940.2
20260906000015 27 329 3.2 9.7 0.00 0.00 0.00 63 940.0
20260905234514 27 11 3.2 8.0 0.00 0.00 0.00 62 939.7
20260905233017 27 18 1.6 8.0 0.00 0.00 0.00 62 939.8
20260905231514 27 17 1.6 6.4 0.00 0.00 0.00 61 939.9
20260905230013 27 17 3.2 9.7 0.00 0.00 0.00 63 939.8
20260905224513 27 9 1.6 8.0 0.00 0.00 0.00 63 939.8
20260905223011 27 45 3.2 9.7 0.00 0.00 0.00 63 940.0
20260905221511 27 18 1.6 11.3 0.00 0.00 0.00 61 939.9
20260905220013 28 20 3.2 11.3 0.00 0.00 0.00 61 940.2